Regional Weather Roundup
Issued by NWS State College, PA

Home | Current Version | Previous Version | Text Only | Print | Product List | Glossary On
Versions: 1 2 3 4 5 6 7 8 9 10 11 12 13 14 15 16 17 18 19 20 21 22 23 24 25 26 27 28 29 30 31 32 33 34 35 36 37 38 39 40 41 42 43 44 45 46 47 48 49 50
000
ASUS41 KCTP 140010
RWRCTP

REGIONAL WEATHER ROUNDUP
NATIONAL WEATHER SERVICE STATE COLLEGE PA
700 PM EST SAT FEB 13 2016

Note: "fair" indicates few or no clouds below 12,000 feet with no
significant weather and/or obstructions to visibility.

* = STATION THAT DOES NOT REPORT PRECIPITATION /E.G. RAIN...SNOW...ETC/
    THUNDER OR FOG.

PAZ002>004-007>009-013>016-020>023-029>032-140100-
WESTERN PENNSYLVANIA

CITY           SKY/WX    TMP DP  RH WIND       PRES   REMARKS
ERIE           FLURRIES  11  -2  56 NW17G26   30.41R WCI  -6
MEADVILLE      LGT SNOW   6  -2  69 NW8G20    30.33S WCI  -7
FRANKLIN*      CLOUDY     5  -4  66 W12       30.33R WCI -11
NEW CASTLE     CLOUDY     7   1  76 W8        30.41R WCI  -6
BEAVER COUNTY  NOT AVBL
BUTLER*        CLEAR      7  -2  66 W5        30.40R WCI  -2
PITTSBURGH INT PTCLDY     7  -2  66 W10       30.39R WCI  -8
PITTSBURGH     CLEAR      9   0  67 W7        30.38R WCI  -2
INDIANA*       CLOUDY     7   0  72 NW9       30.37R WCI  -7
LATROBE        LGT SNOW   9   1  72 W12       30.39R WCI  -6
WASHINGTON CO* CLEAR      9  -6  52 W8        30.40R WCI  -4
$$

PAZ004>006-010>012-017>019-024>028-033>037-041-042-045-046-049>053-140100-
CENTRAL PENNSYLVANIA

CITY           SKY/WX    TMP DP  RH WIND       PRES   REMARKS
BRADFORD       PTCLDY     0 -10  63 NW14G21   30.17R WCI -19
DUBOIS         CLOUDY     3  -6  66 W16G24    30.24R WCI -16
CLEARFIELD     CLEAR      6  -9  50 W14G28    30.27R WCI -11
JOHNSTOWN      MIX PCPN   3  -5  69 NW20G25   30.21R WCI -18
ALTOONA        PTCLDY     7  -8  50 NW22G30   30.29R WCI -14
STATE COLLEGE  FLURRIES   7   1  78 NW16      30.27R WCI -11
WILLIAMSPORT   PTCLDY     9 -11  40 NW14G28   30.31R WCI  -7
SELINSGROVE    MOCLDY    11  -6  46 W8        30.34R WCI  -1
FT INDIANTOWN  PTCLDY    11  -6  44 VRB6      30.31R WCI   2
CAPITAL CITY   CLOUDY    14  -5  42 W17G25    30.35R WCI  -3
HARRISBURG     MOCLDY    14  -2  49 NW22G30   30.34R WCI  -4
YORK           MOCLDY    12  -4  48 W9        30.34R WCI   0
$$

PAZ038>040-043-044-047-048-054-055-060>062-067>071-140100-
EASTERN PENNSYLVANIA

CITY           SKY/WX    TMP DP  RH WIND       PRES   REMARKS
SCRANTON       CLOUDY     2 -12  52 NW12      30.24R WCI -15
MOUNT POCONO   MOCLDY    -2 -15  54 NW15G23   30.08R WCI -22
ALLENTOWN      PTCLDY    10  -9  42 NW20G28   30.28R WCI  -9
QUAKERTOWN*    CLEAR      9  -9  43 NW10G20   30.27R WCI  -6
READING        PTCLDY    11  -4  51 NW16G26   30.30R WCI  -6
LANCASTER      MOCLDY    11  -4  51 NW14      30.32R WCI  -5
COATESVILLE    CLEAR     10  -6  48 NW13      30.29R WCI  -5
POTTSTOWN      CLEAR     10  -9  42 NW10G20   30.31R WCI  -4
BLUE BELL        N/A     12  -8  40 NW6       30.29R WCI   3
DOYLESTOWN     CLEAR      9 -14  34 NW16G30   30.27R WCI  -8
WILLOW GROVE   NOT AVBL
NORTH PHILA    CLEAR     14  -9  35 NW14G24   30.33R WCI  -1
PHILADELPHIA   PTCLDY    15 -12  29 NW15      30.34R WCI   0
$$



USA.gov is the U.S. government's official web portal to all federal, state and local government web resources and services.